Forecast Directory
U.S. Alerts
El Dorado Weather Logo
U.S. Radar Loop Conditions Map

U.S. Color Satellite North America Color Infrared Animated Satellite Loop

Interactive Wx Map Live U.S. Google Map Radar Thumbnail Image

US Precipitation 1 day, 24 hour precipitation map

US Temperatures US Conditions Map

US Climate Data US Conditions Map


NOAA NWS Hourly Roundups by Site
Regional Weather Roundup for Sacramento, CA
Select Site:  

000
ASUS46 KSTO 260009
RWRCA

NORTHERN AND CENTRAL CA REGIONAL WEATHER ROUNDUP
NATIONAL WEATHER SERVICE SACRAMENTO CA
500 PM PDT SAT SEP 25 2021

NOTE: FAIR INDICATES FEW OR NO CLOUDS BELOW 12,000 FEET WITH NO
SIGNIFICANT WEATHER AND/OR OBSTRUCTIONS TO VISIBILITY.

CAZ001-003-260100-
NORTHWEST AREA

CITY           SKY/WX    TMP DP  RH WIND       PRES   REMARKS
CRESCENT CITY  SUNNY     58  52  80 S14       29.97F
ARCATA         NOT AVBL
SHELTER COVE   NOT AVBL
UKIAH          SUNNY     88  46  23 S12       29.87F
$$

CAZ006-505>513-260100-
BAY AREA

CITY           SKY/WX    TMP DP  RH WIND       PRES   REMARKS
SANTA ROSA     SUNNY     68  53  58 S10       29.93F
SAN RAFAEL     N/A       73  MM  MM MISG
NAPA           SUNNY     70  57  63 S13       29.92F
CONCORD        SUNNY     77  49  37 W12       29.91S
OAKLAND CITY   N/A       64  MM  MM MISG
OAKLAND        MOSUNNY   64  54  69 W15       29.96S
SAN FRAN CITY  N/A       60  MM  78 MISG
SAN FRAN ARPT  MOSUNNY   63  54  72 W20       29.95S
LIVERMORE      SUNNY     74  55  51 W13       29.91S
HAYWARD        SUNNY     64  55  72 W15       29.95S
REDWOOD CITY   N/A       67  MM  72 MISG
MOFFETT ARPT   NOT AVBL
SAN JOSE ARPT  CLOUDY    69  57  65 NW13      29.94S
$$
CAZ034-037-514>518-260100-
CENTRAL COAST

CITY           SKY/WX    TMP DP  RH WIND       PRES   REMARKS
WATSONVILLE    SUNNY     62  56  80 W8        29.97S
SALINAS        SUNNY     65  55  70 NW13      29.96S
MONTEREY       MOSUNNY   64  55  72 SW9       29.98S
PT PIEDRAS BLS NOT AVBL
SAN LUIS OBISP SUNNY     66  55  67 VRB6      29.98F
SANTA MARIA    MOSUNNY   61  55  81 NW8       29.99F
HALF MOON BAY  CLOUDY    59  55  88 NW7       29.98F
$$
CAZ015-016-260100-
NORTHERN SACRAMENTO VALLEY

CITY           SKY/WX    TMP DP  RH WIND       PRES   REMARKS
REDDING        SUNNY     90  40  17 S12       29.83F
RED BLUFF      SUNNY     90  46  21 S8        29.84F
OROVILLE       SUNNY     94  44  17 SE12      29.86F HX  90
$$
CAZ016>018-260100-
SOUTHERN SACRAMENTO VALLEY

CITY           SKY/WX    TMP DP  RH WIND       PRES   REMARKS
AUBURN         SUNNY     86  41  20 SW7       29.95S
BEALE AFB      SUNNY     90  49  24 S8        29.84F
LINCOLN        FAIR      90  46  22 S3        29.85F
MARYSVILLE     SUNNY     91  49  23 SE8       29.85F
SAC INTL ARPT  SUNNY     91  50  24 S8        29.85F
MATHER AIRPORT SUNNY     88  48  25 SW9       29.86S
DOWNTOWN SAC   N/A       87  MM  MM MISG
SAC EXEC ARPT  SUNNY     84  52  33 SW10      29.86F
VACAVILLE      SUNNY     89  50  26 SW9       29.87F
TRAVIS AFB     SUNNY     78  55  44 SW21      29.87F
$$
CAZ019>021-260100-
SAN JOAQUIN VALLEY

CITY           SKY/WX    TMP DP  RH WIND       PRES   REMARKS
STOCKTON       SUNNY     83  56  39 NW12      29.87S
MODESTO        SUNNY     86  53  32 NW12      29.85
MERCED         SUNNY     92  53  26 N12       29.85S
LEMOORE        PTSUNNY   93  48  21 CALM      29.86S HAZE
FRESNO         CLOUDY    90  53  28 SE8       29.87S HAZE
HANFORD        MOSUNNY   87  59  38 CALM      29.87F
PORTERVILLE      N/A     84  52  33 CALM      29.89S
BAKERSFIELD    MOSUNNY   86  50  28 NW7       29.87F HAZE
$$
CAZ011-012-071-260100-
NORTHERN MOUNTAINS

CITY           SKY/WX    TMP DP  RH WIND       PRES   REMARKS
YREKA          SUNNY     89  28  11 S16       29.89F
MOUNT SHASTA   SUNNY     78  28  16 VRB3      29.99F
ALTURAS        SUNNY     81  24  12 W21       30.01F
$$
CAZ011-012-071-260100-
SIERRA NEVADA MTNS

CITY           SKY/WX    TMP DP  RH WIND       PRES   REMARKS
BLUE CANYON    SUNNY     73  33  23 W8        30.18S
TRUCKEE        SUNNY     75  28  17 W12       30.18R
TAHOE VLY ARPT SUNNY     74  25  16 SW8G17    30.19S
MAMMOTH LAKES  FAIR      75  19  12 SE7       30.22S
$$


 

View Past Reports for Sacramento, CA.

Products Courtesy of NOAA-NWS
NWS Information Parsing Script by Ken True at Saratoga Weather - Script by SE Lincoln Weather.



Contact Us | Mobile
Never base any life decisions on weather information from this site or anywhere over the Internet.
Site is dedicated to our Lord & Savior Jesus Christ | Random Quotes of Jesus

Copyright © 2021 El Dorado Weather, Inc. | Site Designed By:  El Dorado Weather